Location: ShareBrained
(45.5589°N, 122.6491°W)
Time: 12:26:08
(UTC-08:00)

NOAA 19 - Pass Details

Date: 24 January 2020
Orbit: 840 x 862 km, 99.2° (Epoch: 24 February)

Event Time Altitude Azimuth Distance (km) Brightness Sun altitude
Rises 06:27:23 0° 12° (NNE) 3,409 8.3 -12.8°
Reaches altitude 10° 06:29:46 10° 10° (N) 2,469 7.6 -12.4°
Maximum altitude 06:35:11 68° 289° (WNW) 904 5.1 -11.5°
Drops below altitude 10° 06:40:35 10° 207° (SSW) 2,454 7.5 -10.6°
Sets 06:42:57 0° 205° (SSW) 3,386 8.3 -10.2°
